San Diego, CA

12:40 AM PST on February 12, 2016 (GMT -0800)
Miramar Marine Corps Air Station-Mitscher | | Change Station
CLOSE
Current Station
Airport
Location: Miramar MCAS,
Elevation: 476 ft
Nearby Weather Stations
Active Advisory: High Surf Advisory Active Notice: Record Report

Elev 476 ft 32.86 °N, 117.14 °W | Updated 45 minutes ago

Clear
Clear
60 °F
Feels Like 60 °F
N
9
Wind Variable Wind from ENE

Today
High -- | Low -- °F
--% Chance of Precip.
Yesterday
High -- | Low -- °F
Precip. -- in
Pressure 30.09 in
Visibility 10.0 miles
Clouds Clear
Dew Point 36 °F
Humidity 41%
Rainfall 0.00 in
Snow Depth Not available.
6:35 AM 5:30 PM
Waxing Crescent, 18% visible
METAR KNKX 120755Z 07008KT 10SM CLR 16/02 A3011 RMK AO2 SLP190 T01560022 403000133 $
Pressure 30.09 in
Visibility 10.0 miles
Clouds Clear
Dew Point 36 °F
Humidity 41%
Rainfall 0.00 in
Snow Depth Not available.
6:35 AM 5:30 PM
Waxing Crescent, 18% visible
METAR KNKX 120755Z 07008KT 10SM CLR 16/02 A3011 RMK AO2 SLP190 T01560022 403000133 $

10-Day Weather Forecast

Almanac

Astronomy

Feb. 12, 2016 Rise Set
Actual Time
Civil Twilight
Nautical Twilight
Astronomical Twilight
Moon
Length of Visible Light
Length of Day
Tomorrow will be .
, % of the Moon is Illuminated

Today's Extremes

State Highs State Lows

Community

WunderPhotos

Upload Photos

1,892,284 photos uploaded!

WunderBlog® & News

Nearby

Air Quality

  Air Quality AQ Index Pollutant
Not available.

Snow Depth

Station Depth Elevation

Earthquake Activity

City Distance Mag. Time & Date
Minimum magnitude displayed is 2.5.

Coastal Water Temperatures

Place Temperature

Stations

Nearby Weather Stations

Station Location Temp. Windchill Dew Point Humidity Wind Precip. Elev Updated Type
                   

Watches & Warnings

High Surf Advisory
Issued: 9:03 PM PST Feb. 11, 2016 – National Weather Service

... High surf advisory remains in effect from 10 am Friday to 8 PM
PST Sunday...

* swell... 8 to 9 ft at 17 to 18 seconds from the west-northwest
around 290 degrees.

* Waves and surf... 3 to 6 ft Friday morning... building to 4 to 7
ft by Saturday. Local sets 8 to 9 ft north of Newport Beach and
south of del Mar. Surf slowly lowering Sunday afternoon.

* Impacts... high surf and strong rip currents will create
dangerous swimming conditions. Minor beach erosion is also
possible. Larger waves may over-top jetties or sea walls at
times.

Precautionary/preparedness actions...

A high surf advisory means that high surf will affect beaches in
the advisory area... producing rip currents and localized beach
erosion.